This demonstration page uses our WeatherBlox Daily Observations layout. Learn more.

Left ArrowRight Arrow

Hourly Observations for November 3, 2018

Temp ( °F °C ) Dew Point ( °F °C ) Humidity (%) Winds ( mph kmh ) Pressure ( in mb ) Visibility ( mi km ) Precip ( " mm )
12:53 am 00:53 Clear 50 10 41 5 71 71 SSW 9 15 29.84 1011 10 16 0.00 0.00
1:53 am 01:53 Clear 47 8.3 40 4.4 77 77 SW 5 7 29.82 1010 10 16 0.00 0.00
2:53 am 02:53 Clear 44 6.7 40 4.4 85 85 SSE 5 7 29.80 1009 10 16 0.00 0.00
3:53 am 03:53 Clear 43 6.1 40 4.4 89 89 ESE 6 9 29.79 1009 10 16 0.00 0.00
4:53 am 04:53 Clear 42 5.6 40 4.4 92 92 SE 7 11 29.77 1008 10 16 0.00 0.00
5:53 am 05:53 Clear 41 5 39 3.9 93 93 SSE 9 15 29.76 1008 10 16 0.00 0.00
6:53 am 06:53 Clear 40 4.4 39 3.9 97 97 SE 3 6 29.78 1009 10 16 0.00 0.00
7:53 am 07:53 Clear 41 5 40 4.4 96 96 SE 5 7 29.80 1009 10 16 0.00 0.00
8:53 am 08:53 Sunny 43 6.1 41 5 93 93 N 6 9 29.82 1010 10 16 0.00 0.00
9:53 am 09:53 Sunny 47 8.3 43 6.1 86 86 Calm 29.83 1010 10 16 0.00 0.00
10:53 am 10:53 Sunny 53 11.7 44 6.7 72 72 Calm 29.83 1010 10 16 0.00 0.00
11:53 am 11:53 Sunny 57 13.9 43 6.1 60 60 WSW 5 7 29.83 1010 10 16 0.00 0.00
12:53 pm 12:53 Sunny 62 16.7 44 6.7 52 52 W 10 17 29.82 1010 10 16 0.00 0.00
1:53 pm 13:53 Sunny 71 21.7 40 4.4 32 32 W 16 26 29.79 1009 10 16 0.00 0.00
2:53 pm 14:53 Sunny 72 22.2 42 5.6 34 34 WSW 15 24 29.77 1008 10 16 0.00 0.00
3:53 pm 15:53 Sunny 74 23.3 40 4.4 29 29 W 12 19 29.76 1008 10 16 0.00 0.00
4:53 pm 16:53 Sunny 75 23.9 40 4.4 28 28 W 9 15 29.77 1008 10 16 0.00 0.00
5:53 pm 17:53 Sunny 74 23.3 40 4.4 29 29 W 7 11 29.79 1009 10 16 0.00 0.00
6:53 pm 18:53 Sunny 69 20.6 42 5.6 38 38 WSW 5 7 29.82 1010 10 16 0.00 0.00
7:53 pm 19:53 Cloudy 65 18.3 45 7.2 49 49 N 10 17 29.87 1012 10 16 0.00 0.00
8:53 pm 20:53 Clear 59 15 40 4.4 49 49 NE 22 35 29.94 1014 10 16 0.00 0.00
9:53 pm 21:53 Mostly Cloudy 56 13.3 40 4.4 55 55 NNE 16 26 29.97 1015 10 16 0.00 0.00
10:53 pm 22:53 Mostly Cloudy 54 12.2 40 4.4 59 59 NNE 10 17 29.99 1016 10 16 0.00 0.00
11:53 pm 23:53 Clear 51 10.6 41 5 69 69 NNE 9 15 30.01 1016 10 16 0.00 0.00

Powered by AerisWeather